Weather History for Mmabatho, South Africa

Change the Weather History Date:

Sunday, October 14, 2012

  Actual Average Record
Temperature  
Mean Temperature 68 °F -  
Max Temperature 79 °F - - ()
Min Temperature 56 °F - - ()
Cooling Degree Days 2    
Growing Degree Days 18 (Base 50)    
Moisture  
Dew Point 48 °F    
Average Humidity 52    
Maximum Humidity 82    
Minimum Humidity 19    
Precipitation  
Precipitation 0.00 in - - ()
Sea Level Pressure  
Sea Level Pressure 30.12 in    
Wind  
Wind Speed 13 mph ()    
Max Wind Speed 22 mph    
Max Gust Speed -    
Visibility 10.0 miles    
Events      
T = Trace of Precipitation, MM = Missing Value Source: Averaged Metar Reports

Daily Weather History Graph

Daily Weather History Graph

Search for Another Location

Airport:

Trip Planner

Search our weather history database for the weather conditions in past years. The results will help you decide how hot, cold, wet, or windy it might be!

Date:

Astronomy

Oct. 14, 2012 Rise Set
Actual Time 5:43 AM SAST 6:23 PM SAST
Civil Twilight 5:20 AM SAST 6:47 PM SAST
Nautical Twilight 4:53 AM SAST 7:14 PM SAST
Astronomical Twilight 4:25 AM SAST 7:42 PM SAST
Moon 4:38 AM SAST (10/14) 5:27 PM SAST (10/14)
Length of Visible Light 13h 26m
Length of Day
12h 40m
Waning Crescent, 2% of the Moon is Illuminated
Oct 14
Waning Crescent
Oct 15
New
Oct 22
First Quarter
Oct 29
Full
Nov 7
Last Quarter

Hourly Weather History & Observations

Time (SAST) Temp. Dew Point Humidity Pressure Visibility Wind Dir Wind Speed Gust Speed Precip Events Conditions
12:00 AM 60.8 °F 50.0 °F 68% 30.15 in - NE 12.7 mph - N/A   Unknown
1:00 AM 59.0 °F 50.0 °F 72% 30.12 in - NNE 11.5 mph - N/A   Unknown
2:00 AM 59 °F 50 °F 64%  in - NNE 11.5 mph - -  
2:00 AM 57.2 °F 50.0 °F 77% 30.12 in - NNE 11.5 mph - N/A   Unknown
3:00 AM 55.4 °F 48.2 °F 77% 30.09 in - NE 11.5 mph - N/A   Unknown
4:00 AM 57.2 °F 50.0 °F 77% 30.09 in - NE 17.3 mph - N/A   Unknown
5:00 AM 56 °F 51 °F 77%  in 19 mi NNE 13.8 mph - -   Scattered Clouds
5:00 AM 55.4 °F 50.0 °F 82% 30.12 in - NNE 12.7 mph - N/A   Clear
5:26 AM 57.2 °F 51.8 °F 82% 30.12 in 6.2 mi NNE 15.0 mph - N/A   Mostly Cloudy
6:00 AM 57.2 °F 50.0 °F 77% 30.12 in 6.2 mi NNE 19.6 mph - N/A   Mostly Cloudy
8:00 AM 60 °F 51 °F 64%  in 19 mi NNE 18.4 mph - -   Mostly Cloudy
8:00 AM 59.0 °F 50.0 °F 72% 30.18 in 6.2 mi NNE 17.3 mph - N/A   Mostly Cloudy
9:00 AM 60.8 °F 50.0 °F 68% 30.21 in 6.2 mi NNE 18.4 mph - N/A   Mostly Cloudy
10:00 AM 64.4 °F 50.0 °F 59% 30.18 in 6.2 mi NE 21.9 mph - N/A   Scattered Clouds
11:00 AM 69 °F 52 °F 45%  in 19 mi NE 21.9 mph - -   Scattered Clouds
11:00 AM 68.0 °F 51.8 °F 56% 30.18 in 6.2 mi NE 21.9 mph - N/A   Partly Cloudy
12:00 PM 71.6 °F 50.0 °F 46% 30.15 in 6.2 mi NNE 19.6 mph - N/A   Partly Cloudy
1:00 PM 77.0 °F 48.2 °F 36% 30.12 in 6.2 mi NNE 18.4 mph - N/A   Partly Cloudy
2:00 PM 77 °F 49 °F 26%  in 19 mi NNE 18.4 mph - -   Scattered Clouds
2:00 PM 77.0 °F 48.2 °F 36% 30.09 in 6.2 mi NNE 17.3 mph - N/A   Partly Cloudy
3:00 PM 78.8 °F 46.4 °F 32% 30.09 in 6.2 mi NNE 15.0 mph - N/A   Partly Cloudy
4:00 PM 77.0 °F 42.8 °F 29% 30.06 in 6.2 mi NNE 12.7 mph - N/A   Partly Cloudy
5:00 PM 78 °F 44 °F 19%  in 19 mi NNE 9.2 mph - -   Scattered Clouds
5:00 PM 77.0 °F 42.8 °F 29% 30.06 in 6.2 mi NNE 8.1 mph - N/A   Partly Cloudy
6:00 PM 75.2 °F 42.8 °F 31% 30.09 in 6.2 mi NNE 10.4 mph - N/A   Partly Cloudy
7:00 PM 71.6 °F 42.8 °F 35% 30.09 in 6.2 mi NE 6.9 mph - N/A   Partly Cloudy
8:00 PM 70 °F 44 °F 28%  in 19 mi NE 6.9 mph - -  
8:00 PM 69.8 °F 42.8 °F 38% 30.12 in - NE 5.8 mph - N/A   Clear
9:00 PM 66.2 °F 44.6 °F 46% 30.12 in - NE 5.8 mph - N/A   Unknown
10:00 PM 64.4 °F 42.8 °F 45% 30.12 in - NNE 8.1 mph - N/A   Unknown
11:00 PM 68 °F 47 °F 36%  in - NE 12.7 mph - -  
11:00 PM 66.2 °F 46.4 °F 49% 30.12 in - NE 12.7 mph - N/A   Unknown